[[{"header":{"parameterUnit":"m.s-1","parameterCategory":1,"la1":30.2991,"la2":30.254,"lo1":-89.0895,"lo2":-89.0444,"dy":0.0017,"dx":0.0017,"nx":28,"ny":28,"refTime":"2023-10-06T09:00:00:Z","depth":0,"parameterNumber":2,"parameterNumberName":"U-component_of_WINDS"},"data":[0,0,0,0,0,0,0,0,0,0,0,0,0,0,0,0,0,0,0,0,0,0,0,0,0,0,0,0,0,0,0,0,0,0,0,0,0,0,0,0,0,0,0,0,0,0,0,0,0,0,0,0,0,0,0,0,0,0,-0.8764,-0.8764,0,-0.8815,-0.8816,-0.8816,-0.8782,-0.878,-0.8779,-0.8777,-0.8831,-0.8834,-0.8836,0,0,0,0,0,0,0,0,0,0,0,0,0,-0.8637,-0.864,-0.8764,-0.8765,-0.8765,-0.8815,-0.8816,-0.8816,-0.8782,-0.878,-0.8778,-0.8776,-0.883,-0.8833,-0.8837,0,0,0,0,0,0,0,0,0,0,0,0,0,-0.8691,-0.864,-0.8764,-0.8754,-0.8754,-0.8815,-0.8816,-0.8816,-0.8782,-0.878,-0.8778,-0.8775,-0.8829,-0.8833,-0.8837,-0.8911,0,0,-0.885,-0.8852,0,0,0,0,0,0,0,0,-0.8688,-0.8695,-0.8755,-0.8755,-0.8754,-0.8789,-0.879,-0.8848,-0.8783,-0.8772,-0.8777,-0.8774,-0.8819,-0.8824,-0.8839,-0.8914,-0.8916,-0.8851,-0.8853,-0.8855,-0.8857,0,0,0,0,0,0,0,-0.8684,-0.8693,-0.8784,-0.8756,-0.8756,-0.8747,-0.8752,-0.8801,-0.8808,-0.8772,-0.877,-0.8776,-0.8819,-0.8835,-0.884,-0.8917,-0.8851,-0.8855,-0.8857,-0.8859,-0.9054,-0.9057,0,0,0,0,0,0,-0.8681,-0.869,-0.8782,-0.8786,-0.8714,-0.8751,-0.8757,-0.8781,-0.8807,-0.8809,-0.8778,-0.8775,-0.8828,-0.8835,-0.8842,-0.893,-0.8855,-0.8859,-0.8862,-0.9052,-0.9055,-0.9058,0,0,0,0,0,0,-0.8678,-0.869,-0.878,-0.8737,-0.8748,-0.8756,-0.8783,-0.8783,-0.8799,-0.8812,-0.8813,-0.8794,-0.8827,-0.8835,-0.8894,-0.8932,-0.8861,-0.8865,-0.9049,-0.9053,-0.9056,-0.9108,0,0,0,0,0,0,-0.8675,-0.8689,-0.8717,-0.8738,-0.8751,-0.8832,-0.8785,-0.8786,-0.8807,-0.8802,-0.8827,-0.8828,-0.8826,-0.8888,-0.8898,-0.8936,-0.8869,-0.9045,-0.9051,-0.9055,-0.9103,-0.9114,-0.9122,0,0,0,0,0,-0.867,-0.873,-0.8719,-0.873,-0.8786,-0.8834,-0.8842,-0.8837,-0.881,-0.8838,-0.8846,-0.8828,-0.8925,-0.8894,-0.8906,-0.8946,-0.9043,-0.9049,-0.9055,-0.9099,-0.9112,-0.9122,0,0,0,0,0,0,-0.8714,-0.8733,-0.872,-0.8789,-0.881,-0.8829,-0.8865,-0.885,-0.888,-0.8875,-0.8868,-0.8874,-0.8935,-0.8946,-0.8911,-0.9018,-0.898,-0.8988,-0.901,-0.9022,-0.9031,-0.9028,-0.8872,0,0,0,0,0,-0.8732,-0.8769,-0.8783,-0.8842,-0.8853,-0.8857,-0.8878,-0.8872,-0.8895,-0.8904,-0.8916,-0.8939,-0.8974,-0.8998,-0.9032,-0.9104,-0.9109,-0.9137,-0.9146,-0.9154,-0.9162,-0.9201,-0.9214,-0.9077,-0.9077,-0.9077,0,0,-0.8769,-0.8783,-0.8808,-0.8851,-0.8867,-0.8906,-0.8865,-0.8908,-0.8938,-0.891,-0.8967,-0.8976,-0.9001,-0.9066,-0.9096,-0.9077,-0.9201,-0.9161,-0.9167,-0.9171,-0.9208,-0.9221,-0.9233,-0.9081,-0.908,-0.9079,0,0,-0.8856,-0.8871,-0.8921,-0.8938,-0.8962,-0.8964,-0.8976,-0.8996,-0.9002,-0.9057,-0.9038,-0.9072,-0.9133,-0.9152,-0.9169,-0.9262,-0.9246,-0.9273,-0.9323,-0.9361,-0.9372,-0.9381,-0.9415,-0.9428,-0.928,-0.928,-0.928,0,-0.8899,-0.8958,-0.8949,-0.8994,-0.9014,-0.899,-0.9041,-0.9057,-0.9092,-0.9106,-0.9084,-0.916,-0.9175,-0.9245,-0.9267,-0.9282,-0.9296,-0.9271,-0.9371,-0.938,-0.9389,-0.9422,-0.9434,-0.9283,-0.9283,-0.9283,-0.9282,0,-0.901,-0.905,-0.9088,-0.9121,-0.9145,-0.9193,-0.9192,-0.9217,-0.9208,-0.9212,-0.9269,-0.9286,-0.9322,-0.9338,-0.933,-0.9407,-0.9394,-0.9372,-0.9333,-0.9406,-0.9436,-0.9448,-0.9288,-0.9287,-0.9286,-0.9285,0,0,-0.9129,-0.9155,-0.917,-0.9184,-0.9209,-0.924,-0.9286,-0.9321,-0.9343,-0.9366,-0.9406,-0.9457,-0.9436,-0.9456,-0.945,-0.9483,-0.9556,-0.9456,-0.9457,-0.9476,-0.9642,-0.966,-0.9674,-0.9545,-0.9547,-0.9549,-0.964,0,-0.9219,-0.93,-0.9293,-0.937,-0.9407,-0.9383,-0.9424,-0.9443,-0.9447,-0.948,-0.9484,-0.9522,-0.949,-0.9502,-0.9534,-0.9541,-0.959,-0.9534,-0.9582,-0.9584,-0.9579,-0.969,-0.971,-0.9796,-0.9652,-0.9654,-0.9655,0,-0.9336,-0.9363,-0.9443,-0.9461,-0.9476,-0.9513,-0.9544,-0.9575,-0.9596,-0.9596,-0.9618,-0.9605,-0.9652,-0.9611,-0.9675,-0.9637,-0.9656,-0.9662,-0.9665,-0.9671,-0.9626,-0.9701,-0.9823,-0.9836,-0.9673,-0.9672,-0.9671,0,-0.9417,-0.9473,-0.9528,-0.9541,-0.9563,-0.9589,-0.96,-0.9618,-0.9639,-0.9666,-0.968,-0.9711,-0.973,-0.9754,-0.9751,-0.9721,-0.9817,-0.9775,-0.9819,-0.982,-0.9843,-0.9842,-0.9971,-0.9852,-0.9852,-0.9851,-0.9851,0,-0.9519,-0.957,-0.9565,-0.9599,-0.9655,-0.9646,-0.9701,-0.9708,-0.9724,-0.976,-0.974,-0.9774,-0.9766,-0.9799,-0.9797,-0.9851,-0.9859,-0.9861,-0.986,-0.9864,-0.9864,-0.9878,-0.9873,-0.9855,-0.9854,-0.9853,-0.9853,0,-0.962,-0.9619,-0.9678,-0.9693,-0.9698,-0.9738,-0.9751,-0.9783,-0.9785,-0.983,-0.984,-0.9843,-0.9881,-0.9879,-0.9922,-0.992,-0.9987,-0.9978,-0.9981,-0.9979,-1.0025,-1.0021,-1.0169,-1.0188,-1.0055,-1.0056,-1.0057,0,-0.9687,-0.9725,-0.9744,-0.9766,-0.9778,-0.9813,-0.9834,-0.9826,-0.9849,-0.9874,-0.9904,-0.994,-0.9968,-1.003,-1.0036,-1.0069,-1.0062,-1.0111,-1.0067,-1.0069,-1.0064,-1.0063,-1.0067,-1.0121,-1.0123,-1.0124,-1.0125,0,-0.9806,-0.9803,-0.9834,-0.9865,-0.989,-0.9914,-0.9936,-0.9955,-0.9949,-0.9975,-1.0014,-1.0036,-1.0079,-1.0115,-1.0146,-1.0157,-1.014,-1.0138,-1.015,-1.0156,-1.0156,-1.0158,-1.0006,-1.0136,-1.0134,-1.0134,-1.0133,-1.0133,-0.9893,-0.9926,-0.9944,-0.9979,-0.9994,-1.0014,-1.0046,-1.005,-1.0082,-1.0117,-1.0109,-1.0153,-1.0171,-1.0211,-1.0224,-1.0257,-1.024,-1.0257,-1.0262,-1.0267,-1.0273,-1.0149,-1.0263,-1.0262,-1.0262,-1.0262,-1.0262,0,-1.0012,-1.0022,-1.0054,-1.0085,-1.0113,-1.0093,-1.0115,-1.014,-1.0178,-1.0196,-1.0224,-1.0268,-1.0303,-1.0311,-1.0344,-1.0369,-1.0362,-1.0378,-1.0377,-1.038,-1.0286,-1.0273,-1.0383,-1.0383,-1.0383,-1.0383,-1.0383,-1.0383,-1.0078,-1.0132,-1.0131,-1.0193,-1.0202,-1.0244,-1.0259,-1.0277,-1.0292,-1.0342,-1.037,-1.0374,-1.0389,-1.0422,-1.0453,-1.0454,-1.0468,-1.0487,-1.0486,-1.0399,-1.0387,-1.0375,-1.0363,-1.049,-1.049,-1.0577,-1.0578,-1.0578]},{"header":{"parameterUnit":"m.s-1","parameterCategory":1,"la1":30.2991,"la2":30.254,"lo1":-89.0895,"lo2":-89.0444,"dy":0.0017,"dx":0.0017,"nx":28,"ny":28,"refTime":"2023-10-06T09:00:00:Z","depth":0,"parameterNumber":3,"parameterNumberName":"V-component_of_WINDS"},"data":[0,0,0,0,0,0,0,0,0,0,0,0,0,0,0,0,0,0,0,0,0,0,0,0,0,0,0,0,0,0,0,0,0,0,0,0,0,0,0,0,0,0,0,0,0,0,0,0,0,0,0,0,0,0,0,0,0,0,-7.0786,-7.0787,0,-7.0904,-7.0905,-7.0906,-7.0814,-7.0811,-7.0807,-7.0803,-7.0918,-7.0925,-7.0931,0,0,0,0,0,0,0,0,0,0,0,0,0,-7.0475,-7.0481,-7.0785,-7.0787,-7.0789,-7.0903,-7.0905,-7.0907,-7.0815,-7.081,-7.0806,-7.0801,-7.0916,-7.0924,-7.0932,0,0,0,0,0,0,0,0,0,0,0,0,0,-7.0603,-7.0483,-7.0785,-7.0757,-7.0756,-7.0903,-7.0905,-7.0907,-7.0816,-7.081,-7.0804,-7.0799,-7.0913,-7.0923,-7.0933,-7.1113,0,0,-7.0964,-7.0968,0,0,0,0,0,0,0,0,-7.0596,-7.0615,-7.076,-7.0759,-7.0758,-7.0838,-7.0838,-7.0976,-7.0818,-7.0793,-7.0803,-7.0796,-7.0896,-7.0907,-7.0942,-7.1118,-7.1123,-7.0965,-7.0971,-7.0975,-7.0978,0,0,0,0,0,0,0,-7.0587,-7.0609,-7.0832,-7.0762,-7.0761,-7.0736,-7.0748,-7.0863,-7.0876,-7.0795,-7.0788,-7.0804,-7.0894,-7.0933,-7.0944,-7.1125,-7.0964,-7.0973,-7.098,-7.0984,-7.1454,-7.146,0,0,0,0,0,0,-7.0582,-7.0602,-7.0828,-7.0835,-7.0661,-7.0747,-7.076,-7.0818,-7.0874,-7.0877,-7.0809,-7.0799,-7.0918,-7.0932,-7.0948,-7.1162,-7.0975,-7.0985,-7.099,-7.1448,-7.1455,-7.1462,0,0,0,0,0,0,-7.0576,-7.0603,-7.0823,-7.0717,-7.0743,-7.0758,-7.0825,-7.0824,-7.0862,-7.0885,-7.0886,-7.0846,-7.0914,-7.0933,-7.1073,-7.1165,-7.0989,-7.0998,-7.144,-7.145,-7.1459,-7.1593,0,0,0,0,0,0,-7.0567,-7.0601,-7.0671,-7.072,-7.075,-7.0949,-7.0831,-7.083,-7.088,-7.0869,-7.092,-7.0923,-7.0911,-7.1058,-7.1083,-7.1175,-7.1006,-7.1432,-7.1444,-7.1456,-7.158,-7.1606,-7.1628,0,0,0,0,0,-7.0556,-7.0703,-7.0675,-7.0703,-7.0838,-7.0955,-7.0971,-7.0956,-7.0888,-7.0958,-7.0972,-7.0921,-7.1151,-7.1073,-7.11,-7.1197,-7.1426,-7.1441,-7.1455,-7.1569,-7.1601,-7.1627,0,0,0,0,0,0,-7.0663,-7.0709,-7.0679,-7.0846,-7.0897,-7.0939,-7.1026,-7.099,-7.106,-7.1046,-7.1022,-7.1034,-7.1181,-7.1203,-7.1116,-7.1374,-7.1277,-7.1298,-7.1355,-7.1385,-7.1408,-7.14,-7.1015,0,0,0,0,0,-7.0707,-7.08,-7.0834,-7.0978,-7.1005,-7.1012,-7.1062,-7.1046,-7.1097,-7.1118,-7.1143,-7.1193,-7.1276,-7.1331,-7.1409,-7.1582,-7.1592,-7.1662,-7.1686,-7.1705,-7.1723,-7.1816,-7.1847,-7.151,-7.151,-7.151,0,0,-7.0797,-7.0833,-7.0893,-7.1,-7.1038,-7.1133,-7.1031,-7.1135,-7.1205,-7.1133,-7.1267,-7.1287,-7.1341,-7.1498,-7.1569,-7.1521,-7.1818,-7.1724,-7.1739,-7.1747,-7.1834,-7.1866,-7.1894,-7.152,-7.1518,-7.1517,0,0,-7.101,-7.1047,-7.1171,-7.1212,-7.1271,-7.1274,-7.1304,-7.1352,-7.1363,-7.1497,-7.1445,-7.1526,-7.167,-7.1711,-7.175,-7.1978,-7.1934,-7.2004,-7.2128,-7.2219,-7.2245,-7.2269,-7.235,-7.238,-7.2022,-7.2022,-7.2022,0,-7.1114,-7.1257,-7.1239,-7.1349,-7.1397,-7.1338,-7.1462,-7.1501,-7.1582,-7.1616,-7.1562,-7.1741,-7.1773,-7.1939,-7.1995,-7.2029,-7.2061,-7.1998,-7.2243,-7.2267,-7.2288,-7.2365,-7.2396,-7.203,-7.2029,-7.2029,-7.2028,0,-7.1382,-7.1482,-7.1575,-7.1657,-7.1715,-7.1832,-7.1829,-7.189,-7.1869,-7.1877,-7.2014,-7.205,-7.2134,-7.2172,-7.2151,-7.2335,-7.2304,-7.2247,-7.2149,-7.2329,-7.2401,-7.243,-7.2042,-7.2039,-7.2037,-7.2035,0,0,-7.1667,-7.1737,-7.1772,-7.1808,-7.1869,-7.1945,-7.2057,-7.2142,-7.2194,-7.2251,-7.2345,-7.2468,-7.2416,-7.2461,-7.2443,-7.2523,-7.2701,-7.2456,-7.2457,-7.2501,-7.2905,-7.2948,-7.2983,-7.2672,-7.2677,-7.2682,-7.2901,0,-7.1883,-7.2082,-7.2069,-7.2255,-7.2347,-7.2291,-7.2389,-7.2436,-7.2447,-7.2524,-7.2534,-7.2622,-7.2547,-7.2574,-7.265,-7.2664,-7.2782,-7.2647,-7.2757,-7.2761,-7.2746,-7.302,-7.3066,-7.3271,-7.2929,-7.2933,-7.2937,0,-7.2162,-7.2231,-7.2428,-7.2475,-7.2512,-7.2601,-7.2677,-7.2752,-7.2803,-7.2805,-7.2856,-7.2825,-7.2937,-7.2836,-7.2989,-7.2898,-7.2942,-7.2955,-7.2962,-7.2973,-7.2861,-7.3038,-7.3336,-7.3367,-7.2981,-7.2977,-7.2974,0,-7.235,-7.2492,-7.2628,-7.2661,-7.2719,-7.2782,-7.2809,-7.2854,-7.2906,-7.2971,-7.3004,-7.308,-7.3123,-7.3182,-7.3172,-7.31,-7.3328,-7.3227,-7.3332,-7.3332,-7.3383,-7.338,-7.3693,-7.341,-7.341,-7.3409,-7.3409,0,-7.2593,-7.2716,-7.2714,-7.2797,-7.2932,-7.2915,-7.3048,-7.3067,-7.3108,-7.3193,-7.3148,-7.3228,-7.321,-7.3289,-7.3282,-7.341,-7.3429,-7.3432,-7.3429,-7.3437,-7.3437,-7.3466,-7.3452,-7.3417,-7.3416,-7.3414,-7.3413,0,-7.2827,-7.2831,-7.2975,-7.3019,-7.3032,-7.313,-7.3166,-7.3244,-7.325,-7.3358,-7.3382,-7.3392,-7.3483,-7.3479,-7.3581,-7.3576,-7.3734,-7.3713,-7.3718,-7.3713,-7.3819,-7.3809,-7.4162,-7.4207,-7.3895,-7.3898,-7.3901,0,-7.2983,-7.3076,-7.313,-7.3184,-7.3216,-7.3304,-7.3357,-7.3342,-7.3398,-7.3463,-7.3533,-7.362,-7.3689,-7.3837,-7.3852,-7.393,-7.3911,-7.4029,-7.3922,-7.3927,-7.3913,-7.3908,-7.3917,-7.405,-7.4054,-7.4057,-7.4059,0,-7.3258,-7.3255,-7.3334,-7.3414,-7.3478,-7.3539,-7.3595,-7.3642,-7.3633,-7.3698,-7.3792,-7.3845,-7.3951,-7.4037,-7.4112,-7.4136,-7.4097,-7.4092,-7.4121,-7.413,-7.4129,-7.4132,-7.3775,-7.4085,-7.4082,-7.408,-7.4079,-7.4078,-7.3458,-7.3538,-7.3589,-7.3677,-7.3718,-7.3772,-7.3848,-7.3864,-7.3942,-7.4029,-7.4014,-7.4119,-7.4166,-7.4262,-7.4294,-7.4374,-7.4332,-7.4373,-7.4383,-7.4394,-7.4406,-7.4116,-7.4387,-7.4386,-7.4386,-7.4385,-7.4385,0,-7.3731,-7.3761,-7.3843,-7.3924,-7.3994,-7.3951,-7.4011,-7.4071,-7.4165,-7.4213,-7.4282,-7.4389,-7.4473,-7.4495,-7.4574,-7.4634,-7.4618,-7.4656,-7.4652,-7.4658,-7.4439,-7.4407,-7.4668,-7.4668,-7.4668,-7.4668,-7.4668,-7.4668,-7.3882,-7.4015,-7.4019,-7.4171,-7.4199,-7.4303,-7.4341,-7.4389,-7.4428,-7.455,-7.462,-7.4634,-7.4672,-7.4754,-7.4828,-7.4832,-7.4864,-7.4909,-7.4906,-7.4702,-7.4673,-7.4646,-7.4616,-7.4916,-7.4917,-7.5118,-7.512,-7.5121]}]]